Location: Skalnate Pleso
(49.1889°N, 20.2450°E)
Time: 22:34:33
(UTC+02:00)

COSMOS 2428 - Pass Details

Date: 27 February 2020
Orbit: 846 x 856 km, 70.9° (Epoch: 06 April)

Event Time Altitude Azimuth Distance (km) Brightness Sun altitude
Exits shadow 03:28:37 12° 336° (NNW) 2,390 5.0 -29.4°
Drops below altitude 10° 03:30:30 10° 355° (N) 2,500 5.3 -29.1°
Sets 03:35:01 0° 28° (NNE) 3,439 6.6 -28.4°
